Estherville, IA

9:06 PM CDT on June 25, 2017 (GMT -0500)
Estherville Municipal

Weather History for KEST - June, 2013

Change the Weather History Date:

Thursday, June 13, 2013

  Actual Average Record
Temperature  
Mean Temperature 66 °F 68 °F  
Max Temperature 77 °F 79 °F 101 °F (1956)
Min Temperature 54 °F 57 °F 37 °F (1969)
Degree Days  
Heating Degree Days 0 1  
Month to date heating degree days 54 30  
Since 1 June heating degree days 54 30  
Since 1 July heating degree days 7910 7728  
Cooling Degree Days 1 4  
Month to date cooling degree days 13 41  
Year to date cooling degree days 46 77  
Since 1 June cooling degree days 13 41  
Growing Degree Days 16 (Base 50)    
Moisture  
Dew Point 54 °F    
Average Humidity 65    
Maximum Humidity 86    
Minimum Humidity 43    
Precipitation  
Precipitation 0.00 in 0.15 in 3.00 in (1961)
Month to date precipitation 1.93 1.91  
Sea Level Pressure  
Sea Level Pressure 30.05 in    
Wind  
Wind Speed 8 mph (NNE)    
Max Wind Speed 18 mph    
Max Gust Speed 22 mph    
Visibility 10 miles    
Events      
T = Trace of Precipitation, MM = Missing Value Source: NWS Daily Summary

Daily Weather History Graph

Daily Weather History Graph

Search for Another Location

Airport or City:

Trip Planner

Search our weather history database for the weather conditions in past years. The results will help you decide how hot, cold, wet, or windy it might be!

Date:

Astronomy

Jun. 13, 2013 Rise Set
Actual Time 5:37 AM CDT 9:00 PM CDT
Civil Twilight 5:02 AM CDT 9:36 PM CDT
Nautical Twilight 4:15 AM CDT 10:22 PM CDT
Astronomical Twilight 3:17 AM CDT 11:20 PM CDT
Moon 10:22 AM CDT (6/13) 11:59 PM CDT (6/13)
Length of Visible Light 16h 34m
Length of Day
15h 22m
Waxing Crescent, 22% of the Moon is Illuminated
Jun 13
Waxing Crescent
Jun 16
First Quarter
Jun 23
Full
Jun 29
Last Quarter
Jul 8
New

Hourly Weather History & Observations

Time (CDT) Temp. Dew Point Humidity Pressure Visibility Wind Dir Wind Speed Gust Speed Precip Events Conditions
12:52 AM 61.0 °F 54.0 °F 78% 29.99 in 10.0 mi NNW 17.3 mph - N/A   Clear
1:52 AM 60.1 °F 53.1 °F 78% 29.99 in 10.0 mi NNW 13.8 mph - N/A   Clear
2:52 AM 57.9 °F 53.1 °F 84% 30.01 in 10.0 mi NNW 11.5 mph - N/A   Clear
3:52 AM 57.0 °F 52.0 °F 83% 30.02 in 10.0 mi NNW 10.4 mph - N/A   Clear
4:52 AM 55.9 °F 51.1 °F 84% 30.04 in 10.0 mi NNW 9.2 mph - N/A   Clear
5:52 AM 55.0 °F 50.0 °F 83% 30.06 in 10.0 mi NNW 10.4 mph - N/A   Clear
6:52 AM 55.9 °F 52.0 °F 87% 30.09 in 10.0 mi NNW 6.9 mph - N/A   Clear
7:52 AM 61.0 °F 53.1 °F 75% 30.08 in 10.0 mi NNW 10.4 mph - N/A   Clear
8:52 AM 64.0 °F 54.0 °F 70% 30.10 in 10.0 mi North 10.4 mph - N/A   Clear
9:52 AM 66.9 °F 55.9 °F 68% 30.10 in 10.0 mi North 10.4 mph - N/A   Clear
10:52 AM 70.0 °F 57.0 °F 63% 30.10 in 10.0 mi North 6.9 mph - N/A   Clear
11:52 AM 71.1 °F 55.0 °F 57% 30.09 in 10.0 mi NNE 12.7 mph 17.3 mph N/A   Clear
12:52 PM 73.0 °F 55.0 °F 53% 30.09 in 10.0 mi NE 6.9 mph - N/A   Clear
1:52 PM 73.9 °F 54.0 °F 50% 30.08 in 10.0 mi NE 12.7 mph 18.4 mph N/A   Clear
2:52 PM 75.0 °F 54.0 °F 48% 30.07 in 10.0 mi East 9.2 mph 18.4 mph N/A   Clear
3:52 PM 75.9 °F 54.0 °F 46% 30.07 in 10.0 mi ENE 11.5 mph 16.1 mph N/A   Clear
4:52 PM 77.0 °F 53.1 °F 43% 30.07 in 10.0 mi ENE 6.9 mph - N/A   Clear
5:52 PM 75.9 °F 53.1 °F 45% 30.06 in 10.0 mi Variable 3.5 mph - N/A   Clear
6:52 PM 75.0 °F 54.0 °F 48% 30.04 in 10.0 mi ENE 6.9 mph - N/A   Clear
7:52 PM 73.0 °F 54.0 °F 51% 30.04 in 10.0 mi ESE 4.6 mph - N/A   Clear
8:52 PM 69.1 °F 55.0 °F 61% 30.03 in 10.0 mi ENE 6.9 mph - N/A   Clear
9:52 PM 66.0 °F 57.0 °F 73% 30.01 in 10.0 mi ENE 8.1 mph - N/A   Clear
10:52 PM 64.9 °F 55.9 °F 73% 30.01 in 10.0 mi East 8.1 mph - N/A   Clear
11:52 PM 64.9 °F 57.0 °F 75% 30.05 in 10.0 mi Calm Calm - N/A   Clear